Location: Burzi?i
(45.0869°N, 16.0577°E)
Time: 12:08:48
(UTC+00:00)

Cosmos 2297 Rocket - Pass Details

Date: 29 October 2020
Orbit: 838 x 845 km, 71.0° (Epoch: 27 November)

Event Time Altitude Azimuth Distance (km) Brightness Sun altitude
Rises 17:32:06 0° 328° (NNW) 3,413 5.8 -18.9°
Reaches altitude 10° 17:34:40 10° 321° (NW) 2,473 5.1 -19.4°
Maximum altitude 17:39:55 40° 254° (WSW) 1,231 3.6 -20.3°
Drops below altitude 10° 17:45:07 10° 186° (S) 2,455 4.7 -21.2°
Sets 17:47:41 0° 179° (S) 3,385 5.3 -21.7°
